STARLINK-3782, 52273

Orbit data source: Space-Track

STARLINK-3782, 52273 is a payload satellite owned by SpaceX/Seattle (US) in LEO that was launched on Thu, 21 Apr 2022 UTC via an FALCON 9 launch vehicle from the Air Force Eastern Test Range (AFETR). Payload-class satellites include a variety of spacecraft equipped with specific instruments for various scientific and technological missions. These include communications satellites like Starlink; space stations such as the ISS; scientific satellites like the Hubble; Earth observation satellites from companies like Planet Labs, Umbra, and HawkEye 360; GPS; miniature CubeSats for education and research; and military/defense satellites.

Loading next visibility...
Identifier
52273, 2022-041N
Orbit
LEO
Country
Flag of USUS
Related business
Manufacturer
SpaceX/Seattle
Mission
Operational Commercial Communications
Bus & Motor
STARLINK, Unknown motor
Mass
297 kg wet, ~275 kg dry
Launch date (UTC)
2022-04-21 (4 years ago)
Launch vehicle
FALCON 9
Launch site
Air Force Eastern Test Range (AFETR)
Object type
Payload
Rocket body
Debris
Shape & HBR
Box + 1 Pan, 10.1 m
Radar Cross Section
11.087 m², Large (>1 m²)

Expand to show TLE details & history
Last TLE update: 6 hours ago

TLE from 6 hours ago
0 STARLINK-3782
1 52273U 22041N   26263.54204303 -.00000050  00000-0  10162-4 0  9998
2 52273  53.1574 291.5998 0001403  73.7696 286.3460 15.31698221244091
Epoch: 2026-09-20T13:00Z
TLE epoch observation values (Epoch: 2026-09-20T13:00:32.517Z)
Latitude
-0.00001°
Longitude
97.02957°
Altitude
471.375 km
Speed
7.632 km/s
True Right ascension
19h 26m 23s
True Declination
0° 00' 00"
Sunlit
Object was in full shadow at epoch
Visualization orbit readout
Latitude
Unknown
Longitude
Unknown
Altitude
Unknown
Speed
Unknown
Apparent Right ascension
Unknown
Apparent Declination
Unknown
Sunlit
N/A
Visualization observer readout
Local Sidereal Time
12:12:10
Azimuth
Unknown
Elevation
Unknown
Doppler factor
Unknown
Orbital elements
Apogee altitude
471.963 km
Perigee altitude
470.041 km
Semi-major axis
6,849.139 km
Eccentricity
0.00014
Inclination
53.1574°
RAAN
291.5998°
Arg. of periapsis
73.7696°
True anomaly
286.33057°
Mean anomaly
286.346°
Eccentric anomaly
286.33829°
Mean motion
3.82903 °/min
Orbital period
94.02 mins
BSTAR
0.000010162
Loading maneuver chart data...
Computing Atmospheric mass density...
Loading historical data...
Loading historical data...
Loading historical data...
Loading historical data...
Loading historical data...
Loading historical data...
Loading historical data...

Documentation

Showing up to 5 results
|